Location: Laas
(43.4693°N, 0.3073°E)
Time: 16:06:13
(UTC+00:00)

Atlas Centaur 2 - Pass Details

Date: 25 October 2020
Orbit: 459 x 1309 km, 30.4° (Epoch: 23 November)

Event Time Altitude Azimuth Distance (km) Brightness Sun altitude
Rises 19:15:55 0° 238° (WSW) 4,264 6.6 -25.4°
Reaches altitude 10° 19:19:17 10° 228° (SW) 3,317 5.7 -26.0°
Maximum altitude 19:26:22 30° 172° (S) 2,118 4.0 -27.3°
Enters shadow 19:27:23 29° 160° (SSE) 2,135 4.0 -27.4°
